Dewpoint
32 25 20 18 18 27 32 33 28 26 23 30 28 25 21 18 19 20 21 23 33 19 15 25 25 23 22 20 25 33 33 38 40 41 42 42 42 43 44 45 45 46 45 45 48 50 51 51 52 53 54 54 54 55 55 56 55 56 55 56 56 56 58 56 54 55 55 55 56 57 59 58 58 58 60 60 60 59 59 59 57 59 59 60 61 61
31 22 23 29 32 33 30 35 36 33 31 27 27 23 18 20 20 19 21 31 29 25 19 29 24 23 23 26 25 30 32 36 39 41 41 41 41 42 44 45 46 46 45 44 49 50 51 49 52 54 53 54 53 53 54 55 55 55 56 56 56 56 57 57 57 56 56 57 55 55 56 56 57 56 56 57 58 59 59 59 59 60 59 59 60 61
26 17 27 35 35 36 38 36 36 35 31 29 22 22 20 20 21 25 28 33 30 28 22 25 21 23 25 27 32 30 34 37 38 40 42 41 41 42 42 45 47 46 45 46 47 51 50 51 52 52 54 54 54 55 54 55 55 55 55 56 56 56 56 56 58 56 54 56 57 57 56 55 53 56 58 57 57 58 55 59 58 59 59 58 57 59
17 21 36 33 36 39 37 36 35 34 34 28 23 22 19 24 21 17 27 34 33 29 25 26 22 25 33 35 34 36 32 33 40 37 40 42 41 41 42 44 46 47 46 46 46 48 50 51 52 52 53 54 54 54 54 54 54 55 54 54 55 56 57 57 58 57 58 57 58 59 58 57 56 55 58 58 57 57 55 55 57 57 58 57 56 56
12 26 36 37 36 33 35 35 33 27 25 30 30 23 21 25 24 21 22 33 35 33 33 25 25 21 30 24 23 29 33 33 33 29 33 38 40 43 44 44 46 46 48 47 47 48 50 51 51 51 52 54 53 53 53 54 54 55 55 55 55 56 57 58 58 58 58 58 57 57 57 56 56 56 55 55 54 56 55 54 55 55 57 57 56 57
15 26 35 32 32 31 34 31 33 30 23 26 34 29 29 33 27 27 32 27 21 19 29 27 12 18 24 26 26 26 29 26 29 29 28 30 36 38 39 42 44 48 48 48 47 47 49 51 52 52 52 52 53 53 54 54 54 55 55 55 56 56 57 58 59 58 57 56 56 55 53 51 53 52 53 52 53 54 53 52 56 54 55 55 57 56
19 30 31 33 35 33 29 28 35 33 23 24 22 34 33 30 33 32 28 24 16 14 26 31 15 13 27 19 23 28 28 27 29 31 29 31 30 31 36 39 42 44 46 48 48 47 47 50 51 52 52 52 52 52 54 54 54 55 55 55 55 55 56 59 58 57 57 57 56 57 55 52 52 52 54 56 57 56 54 55 55 54 57 54 55 56
24 27 31 35 36 33 31 24 33 30 23 17 32 32 30 30 28 32 29 23 20 29 33 29 22 17 17 20 31 28 29 26 28 29 32 27 31 30 33 36 41 42 45 47 48 47 47 49 50 51 52 53 52 54 53 54 54 55 55 55 55 55 56 58 58 56 57 56 57 57 56 54 53 53 52 55 56 58 56 54 54 55 55 55 54 55
31 27 26 31 33 25 17 31 36 34 25 25 33 29 30 30 35 33 23 23 26 24 15 22 26 18 17 22 29 28 18 23 21 27 27 27 27 29 32 32 33 39 43 45 46 48 47 48 50 52 52 52 53 53 52 53 54 55 55 55 55 55 56 57 58 56 56 57 57 56 55 54 54 54 55 54 55 55 57 55 55 55 54 56 57 54
23 25 21 28 23 12 31 28 31 32 25 29 32 28 28 30 31 30 23 21 22 19 16 19 25 15 13 24 20 24 18 20 24 27 27 28 28 29 30 33 34 33 33 36 41 46 48 48 51 53 53 53 53 54 53 53 53 54 55 55 55 54 56 57 58 57 56 56 57 56 55 55 54 54 55 54 55 56 56 54 55 55 54 54 55 56
21 31 27 25 22 19 30 31 32 29 31 33 30 19 17 22 22 24 23 21 21 15 15 26 26 21 12 17 19 20 25 26 28 29 30 31 31 31 34 33 34 33 32 30 31 39 46 48 50 52 51 52 54 54 53 53 52 53 54 54 54 54 55 57 57 57 56 56 56 55 55 55 55 55 55 54 55 54 54 54 54 53 53 54 54 55
19 17 22 28 32 27 22 19 20 25 27 26 23 20 18 19 22 19 18 22 14 13 19 21 23 24 13 15 20 25 27 28 30 30 30 31 30 29 31 29 31 34 35 34 32 35 44 48 50 51 51 52 52 53 53 53 53 53 53 54 54 55 55 56 57 57 56 54 55 55 56 55 56 56 55 54 54 54 54 54 53 53 53 53 54 55
24 16 19 16 34 21 23 17 16 18 24 21 21 17 14 12 14 11 15 12 12 11 18 20 24 19 16 20 24 25 27 28 32 30 30 29 27 29 27 29 31 35 37 37 35 39 45 48 50 50 51 52 52 52 52 53 53 53 53 53 53 53 55 56 56 57 56 55 55 54 55 55 56 56 55 54 54 55 53 52 53 53 51 52 51 52
15 25 21 21 17 27 20 12 14 15 18 18 18 19 13 9 8 7 8 12 14 18 21 20 25 14 20 19 26 26 28 27 30 31 29 28 28 28 25 27 28 35 38 39 39 40 44 47 49 51 51 51 52 52 52 53 53 52 52 53 52 53 55 56 56 56 56 55 55 55 54 55 55 55 56 55 54 55 53 53 53 53 51 51 52 53
11 10 16 22 13 23 18 18 20 21 18 15 15 13 17 13 7 8 6 7 6 12 19 22 20 17 18 20 25 27 29 28 27 24 26 28 26 27 25 26 28 32 39 41 41 43 46 48 50 51 51 52 52 52 52 52 52 52 51 52 52 52 54 55 55 56 56 55 55 55 54 55 55 55 54 54 54 55 54 54 54 54 54 52 53 53
10 14 20 20 17 17 14 17 16 13 15 17 19 13 15 15 19 7 15 13 11 12 13 18 17 21 21 24 27 31 25 24 25 23 27 24 24 26 28 28 28 31 35 42 44 45 48 50 51 51 52 52 51 52 52 52 52 52 51 51 51 51 53 54 55 55 56 55 55 55 54 55 55 54 55 54 53 54 55 55 54 54 55 54 55 56
15 13 20 21 17 18 17 18 14 11 12 21 11 16 16 21 20 20 20 22 19 16 11 17 22 20 22 24 27 25 22 22 23 21 22 24 24 29 28 28 28 30 31 38 43 45 48 49 51 51 51 52 52 52 52 52 52 52 51 51 51 51 51 53 54 55 55 56 55 54 54 54 54 55 55 54 54 54 55 55 55 54 54 56 55 55
17 17 25 15 16 18 20 17 19 18 15 13 12 14 21 23 28 20 10 15 13 11 13 18 18 21 15 18 23 22 22 21 21 21 20 27 26 25 28 30 30 30 33 35 38 44 47 49 50 51 52 52 52 52 52 52 53 53 52 51 50 51 51 52 53 54 55 55 54 54 54 54 55 54 55 55 55 55 53 54 54 54 54 53 54 55
19 13 17 18 18 18 20 17 16 19 21 14 15 20 17 15 15 23 18 10 10 10 11 19 16 17 14 17 22 20 21 22 21 22 22 21 24 27 29 29 31 33 35 35 36 39 41 46 49 51 51 51 52 52 52 52 52 53 53 52 51 51 52 52 53 53 54 54 55 54 54 54 54 54 54 55 55 55 54 53 53 53 53 55 54 54
26 17 19 21 19 19 20 17 15 19 17 23 17 16 22 21 22 19 17 19 15 8 11 15 13 12 17 18 26 21 23 23 22 23 22 22 24 28 30 31 31 34 36 34 35 38 40 43 47 49 51 50 52 53 53 53 53 52 53 53 52 53 53 53 53 54 54 54 54 54 54 53 52 52 53 54 55 55 54 54 53 53 54 54 53 54
22 25 14 19 20 21 15 19 17 18 20 15 19 16 17 24 23 18 22 15 13 12 12 11 11 11 20 24 27 23 24 24 24 23 24 25 25 26 28 32 34 34 36 37 37 38 39 41 42 45 48 48 50 51 53 54 54 53 53 53 52 53 53 54 54 54 54 54 54 54 55 54 54 54 53 54 54 55 55 55 54 54 54 53 54 54
22 21 19 23 19 18 20 19 19 18 17 18 18 17 14 18 15 12 13 19 17 13 13 10 11 17 23 31 31 25 26 26 25 23 24 23 24 29 32 34 35 36 36 38 38 39 39 40 41 41 40 42 44 47 51 54 54 54 55 54 54 52 52 53 53 54 54 55 55 55 54 55 55 54 54 54 54 54 54 54 54 54 53 53 53 53
29 28 23 17 15 16 18 19 20 19 20 18 19 15 18 26 21 14 11 15 19 18 13 15 13 16 29 32 34 32 32 27 28 28 25 24 28 29 32 32 35 37 37 38 39 40 40 41 41 39 40 41 42 43 44 47 50 53 54 55 55 54 54 54 54 54 55 56 56 55 55 55 55 54 55 55 54 54 53 54 54 53 53 52 53 53
40 24 18 17 17 17 16 15 18 18 16 15 19 22 19 18 21 18 17 21 19 20 15 17 14 18 29 34 35 35 34 32 33 32 29 26 29 31 32 34 35 37 38 39 40 41 41 41 41 40 40 39 40 42 43 45 44 46 50 53 54 54 55 54 54 54 55 56 56 56 56 56 55 55 55 55 54 55 55 54 54 53 53 52 53 51
18 26 19 16 13 13 16 14 14 15 19 19 14 21 23 22 24 26 25 23 15 20 16 13 10 19 28 33 29 28 24 20 19 24 31 27 32 33 33 35 36 38 38 38 39 40 41 40 40 39 39 39 39 40 43 41 42 43 45 46 47 50 53 56 56 55 54 54 56 57 56 57 56 55 55 55 54 55 55 55 54 53 51 52 52 51
20 28 20 12 10 9 7 7 8 11 13 19 22 20 20 18 24 19 12 17 12 17 19 15 13 21 26 28 25 25 26 20 22 23 28 30 30 31 33 36 37 37 37 38 40 41 41 40 39 40 41 38 39 38 39 41 41 42 43 44 46 46 48 49 54 56 56 55 56 56 56 57 57 56 55 55 55 55 55 54 54 53 53 51 51 51
24 28 25 18 14 12 12 11 21 20 19 18 16 19 20 23 23 24 19 15 11 18 18 19 19 19 23 24 23 22 28 24 21 25 24 26 31 34 36 36 36 37 37 37 40 40 41 41 41 41 41 40 40 40 39 39 38 39 42 43 43 45 45 47 49 51 55 56 56 56 56 57 56 57 56 55 55 55 54 54 54 53 52 53 52 51
26 22 26 26 24 18 17 16 17 21 18 18 16 18 18 21 25 20 15 13 22 13 10 19 26 20 19 21 23 23 26 29 28 28 29 31 33 35 35 36 36 35 36 37 38 39 39 40 41 41 41 41 39 39 39 38 38 39 41 41 41 44 46 48 49 48 49 52 55 55 56 57 58 57 57 55 55 54 54 54 53 52 51 51 51 50
23 19 23 24 21 21 20 18 17 17 18 19 18 21 20 22 23 21 20 22 21 13 11 18 25 22 18 18 23 25 28 29 29 25 28 32 34 35 36 36 35 35 35 35 37 39 39 39 41 42 41 41 40 39 40 38 38 40 41 41 41 43 43 45 47 47 47 49 51 52 54 56 56 56 56 55 55 54 54 54 53 52 51 52 52 52
23 18 23 22 20 19 17 18 22 19 20 19 21 22 23 23 23 23 22 23 22 19 22 22 23 23 22 21 24 27 31 28 25 28 32 32 34 35 35 35 33 33 33 34 35 36 38 39 41 41 42 42 40 39 37 38 38 38 40 41 41 42 43 45 46 46 47 47 49 50 50 52 54 55 55 55 55 54 54 53 53 52 51 50 50 50
22 15 27 22 19 17 18 21 19 18 20 18 18 19 21 22 21 23 22 22 23 21 22 22 21 24 24 26 24 27 28 29 29 28 32 33 34 35 34 32 33 33 32 33 35 36 38 39 40 41 41 41 41 41 40 40 40 40 40 41 42 42 43 44 46 46 47 47 47 48 49 51 52 53 54 54 55 55 54 52 52 51 50 49 49 51
23 18 24 21 14 16 15 16 15 18 19 18 17 17 19 19 20 19 20 23 21 21 21 20 19 21 22 25 26 26 26 25 24 27 33 34 34 35 32 30 31 31 32 32 34 36 37 37 39 40 41 41 41 40 39 40 39 39 40 41 41 42 43 45 46 46 46 46 47 47 47 49 50 51 52 53 53 54 53 52 51 50 50 50 52 51
21 18 17 17 13 14 13 17 17 17 16 16 18 20 21 22 20 22 22 26 25 24 21 18 19 22 24 29 24 23 27 27 27 31 33 34 34 32 30 30 30 32 32 34 35 36 36 37 38 41 42 41 40 38 38 38 40 40 41 42 43 43 45 45 46 46 46 46 46 46 47 47 48 49 51 52 52 53 52 51 50 50 50 50 51 51
24 19 15 20 11 10 13 14 17 14 9 10 22 26 24 22 22 21 22 23 26 25 21 22 22 25 26 25 24 25 30 32 33 35 35 35 35 34 31 32 31 33 35 36 37 36 38 39 40 40 42 42 41 40 42 42 41 41 43 43 43 44 44 44 44 45 45 46 46 46 46 47 47 48 50 52 52 52 52 51 50 51 51 51 50 49
23 23 15 19 12 11 15 15 11 9 10 22 25 26 26 25 22 21 22 25 26 28 28 23 22 23 25 28 29 32 35 33 34 32 32 33 36 33 28 28 31 32 35 36 38 38 39 41 41 42 42 40 40 41 41 40 41 43 41 43 43 44 45 45 44 45 46 46 46 46 46 46 46 47 49 50 50 51 51 51 51 50 50 49 48 46
20 18 17 17 14 13 11 9 5 8 15 22 24 28 32 25 24 22 21 24 26 27 29 28 30 30 32 34 33 33 34 32 29 29 31 33 36 34 31 30 29 32 32 34 37 40 40 39 40 40 41 41 39 38 37 39 40 41 42 43 44 44 44 45 44 44 45 45 45 45 45 45 46 47 48 49 49 50 51 51 50 50 49 48 46 44
23 22 18 13 17 10 10 11 10 16 16 17 19 30 30 25 26 24 14 21 25 27 27 24 24 26 29 31 32 33 31 28 24 22 26 29 36 36 35 34 36 36 36 37 38 39 41 41 40 41 42 41 40 38 39 39 41 42 43 43 43 43 43 45 44 44 44 45 44 45 45 45 45 46 47 48 48 49 50 50 49 48 46 45 43 41
22 18 20 15 13 14 10 9 10 9 9 15 24 27 30 32 31 31 23 21 25 25 28 25 24 25 26 28 30 32 32 22 22 20 22 25 27 32 33 34 34 35 34 34 37 39 40 41 41 40 41 40 41 40 39 40 41 42 43 43 43 43 43 43 43 43 43 44 43 44 44 45 44 45 46 47 47 49 50 49 47 45 44 42 40 39
23 23 20 16 13 14 12 10 8 7 12 18 26 27 31 32 33 34 21 17 22 24 26 26 24 26 27 26 28 32 25 21 21 21 24 26 27 29 31 31 31 33 35 36 38 38 39 40 40 39 40 41 40 39 40 41 42 42 42 43 44 44 43 43 43 44 43 44 44 44 44 44 45 45 46 47 48 49 47 44 43 42 41 41 41 40
22 19 18 15 15 14 12 11 11 11 13 25 26 28 29 33 32 27 16 16 24 23 24 27 26 26 28 30 30 28 23 19 19 22 27 29 29 32 33 32 32 33 33 34 37 40 40 41 41 41 41 40 40 40 40 42 42 43 43 43 45 44 44 43 43 43 43 44 44 44 44 45 45 46 46 47 48 45 43 42 41 42 41 40 41 39
16 16 17 14 14 15 15 13 13 16 22 26 28 31 30 34 29 19 14 16 21 24 26 30 28 27 29 30 30 26 27 26 26 28 32 33 33 32 34 35 34 34 34 34 36 39 38 38 40 39 39 39 39 41 42 42 42 42 43 44 44 44 44 44 43 44 44 44 44 44 44 44 45 47 47 46 43 42 41 41 41 40 38 39 40 40
14 14 13 15 14 13 14 13 14 15 23 31 32 32 31 24 18 17 19 23 24 22 28 28 28 29 29 27 30 28 27 29 31 31 32 31 32 33 33 32 34 34 36 37 39 39 39 38 40 40 39 40 40 41 41 42 42 42 42 44 44 44 44 44 44 45 44 43 42 43 43 45 46 47 46 42 41 40 40 41 41 42 40 39 40 39
14 13 11 11 13 14 14 12 11 7 25 28 25 17 27 17 19 19 21 22 23 24 26 27 26 25 28 26 28 31 31 30 31 31 32 32 33 32 32 32 33 34 34 36 37 37 38 38 38 38 40 40 41 41 41 42 42 42 43 43 44 45 45 45 44 42 42 42 42 43 44 45 45 44 43 42 40 40 40 40 39 38 36 36 36 36
20 13 11 11 15 10 10 10 10 16 24 29 24 16 23 20 20 22 23 20 22 25 25 25 26 27 28 28 27 28 30 31 32 32 32 31 32 33 33 34 34 35 35 35 35 36 37 38 39 39 40 40 41 41 42 42 42 42 42 43 44 45 43 42 41 41 42 42 43 44 43 42 42 41 40 38 37 37 38 39 38 35 36 35 34 34
23 16 19 14 20 15 13 14 19 23 22 23 24 22 22 24 28 26 25 23 23 23 28 26 25 27 27 27 28 30 29 30 29 29 30 31 31 32 32 32 33 34 35 36 36 37 38 37 39 39 39 40 42 42 42 42 43 43 43 44 43 41 41 41 41 41 42 43 43 42 40 39 39 38 37 37 37 37 37 37 37 36 38 38 35 35
20 21 25 19 17 22 22 21 23 21 21 21 25 27 26 27 25 25 24 23 25 26 26 25 25 25 26 28 27 27 28 28 28 29 29 30 31 31 34 34 34 36 36 37 37 38 38 38 39 40 40 40 41 43 43 44 43 43 43 42 41 40 41 40 41 41 42 41 40 38 37 37 37 37 37 38 39 38 38 35 36 37 35 36 36 34
21 22 21 17 21 18 13 19 21 22 22 23 22 23 25 26 25 25 25 25 25 24 25 26 27 27 27 28 27 28 28 29 29 29 30 30 31 32 32 33 35 36 37 37 37 39 39 40 39 39 40 41 42 43 43 44 42 42 41 40 40 40 40 41 42 42 42 42 42 40 38 38 39 40 41 38 37 37 37 38 35 36 38 33 33 32
16 23 18 18 18 17 17 19 20 21 23 24 23 22 22 23 23 25 26 26 26 27 27 26 27 26 28 27 27 28 27 28 29 29 30 30 31 31 31 33 34 35 36 38 38 39 39 40 40 40 40 40 42 43 43 42 41 40 40 39 39 39 40 41 41 40 40 40 41 41 41 39 34 35 35 35 36 37 36 37 36 35 33 32 32 30
19 22 16 20 18 17 20 21 21 22 21 21 22 24 24 23 23 24 24 25 25 24 24 24 26 25 25 26 27 28 28 29 29 30 29 30 31 32 32 33 34 35 36 37 38 40 39 39 39 41 41 41 42 43 42 42 41 40 40 38 38 38 39 39 39 39 40 41 40 40 38 36 36 37 37 37 35 35 35 34 34 34 34 35 36 32
21 17 20 20 18 16 16 18 21 19 19 20 22 23 24 25 26 25 25 25 25 24 25 24 25 25 26 27 27 28 28 28 29 30 30 31 32 32 33 34 35 35 36 37 38 39 40 40 41 42 41 41 43 43 42 42 40 39 38 37 38 39 40 40 40 40 40 40 39 39 39 37 36 33 32 32 32 32 32 31 32 32 30 32 33 32
19 21 20 18 17 17 20 21 23 24 23 23 23 23 25 26 26 25 25 25 25 26 26 25 25 25 26 27 28 29 29 29 30 31 32 31 32 33 34 34 34 35 36 37 38 38 40 40 41 41 41 41 43 42 42 42 41 40 40 40 39 39 39 38 40 39 40 39 39 39 38 38 36 31 31 31 31 31 30 31 32 32 32 32 32 32